Weather History for Andover, NJ

Change the Weather History Date:

Sunday, October 7, 2012

  Actual Average (KFWN) Record (KFWN)
Temperature  
Mean Temperature 47 °F -  
Max Temperature 52 °F 67 °F 87 °F (1959)
Min Temperature 42 °F 38 °F 22 °F (1992)
Degree Days  
Heating Degree Days 18    
Moisture  
Dew Point 41 °F    
Average Humidity 79    
Maximum Humidity 93    
Minimum Humidity 61    
Precipitation  
Precipitation 0.12 in - - ()
Sea Level Pressure  
Sea Level Pressure 30.08 in    
Wind  
Wind Speed 1 mph (WNW)    
Max Wind Speed 6 mph    
Max Gust Speed -    
Averages and records for this station are not official NWS values.
T = Trace of Precipitation, MM = Missing Value Source: NWS Daily Summary

Daily Weather History Graph

Daily Weather History Graph

Search for Another Location

Airport:

Trip Planner

Search our weather history database for the weather conditions in past years. The results will help you decide how hot, cold, wet, or windy it might be!

Date:

Astronomy

Oct. 07, 2012 Rise Set
Actual Time 7:02 AM EDT 6:30 PM EDT
Civil Twilight 6:34 AM EDT 6:57 PM EDT
Nautical Twilight 6:02 AM EDT 7:29 PM EDT
Astronomical Twilight 5:30 AM EDT 8:01 PM EDT
Moon 11:37 PM EDT (10/7) 1:39 PM EDT (10/7)
Length of Visible Light 12h 22m
Length of Day
11h 27m
Waning Gibbous, 56% of the Moon is Illuminated
Oct 7
Waning Gibbous
Oct 8
Last Quarter
Oct 15
New
Oct 21
First Quarter
Oct 29
Full

Hourly Weather History & Observations

Time (EDT) Temp. Dew Point Humidity Pressure Visibility Wind Dir Wind Speed Gust Speed Precip Events Conditions
12:54 AM 51.1 °F 37.9 °F 61% 30.01 in - Variable 4.6 mph - N/A   Unknown
1:54 AM 50.0 °F 37.0 °F 61% 30.02 in - North 5.8 mph - N/A   Unknown
2:54 AM 48.9 °F 37.9 °F 66% 30.03 in - Calm Calm - N/A   Unknown
3:54 AM 44.1 °F 39.0 °F 82% 30.04 in - Calm Calm - N/A   Unknown
4:00 AM - - N/A% - - North - - N/A   Unknown
4:54 AM 42.1 °F 39.9 °F 92% 30.05 in - Calm Calm - N/A   Unknown
5:54 AM 43.0 °F 41.0 °F 93% 30.07 in - Calm Calm - N/A   Unknown
6:54 AM 44.1 °F 41.0 °F 89% 30.09 in - Calm Calm - N/A   Unknown
7:54 AM 45.0 °F 42.1 °F 90% 30.10 in - Calm Calm - N/A   Unknown
8:54 AM 46.0 °F 41.0 °F 83% 30.12 in - Calm Calm - N/A   Unknown
9:54 AM 48.0 °F 41.0 °F 77% 30.13 in - Calm Calm - N/A   Unknown
10:54 AM 48.9 °F 39.9 °F 71% 30.12 in - Calm Calm - N/A   Unknown
11:54 AM 50.0 °F 39.9 °F 68% 30.11 in - Calm Calm - N/A   Unknown
12:54 PM 51.1 °F 41.0 °F 68% 30.10 in - SW 4.6 mph - N/A   Unknown
1:54 PM 52.0 °F 41.0 °F 66% 30.07 in - Calm Calm - N/A   Unknown
2:54 PM 52.0 °F 39.9 °F 63% 30.06 in - Calm Calm - N/A   Unknown
3:54 PM 51.1 °F 42.1 °F 71% 30.05 in - Calm Calm - N/A   Unknown
4:54 PM 51.1 °F 42.1 °F 71% 30.02 in - Calm Calm - N/A   Unknown
5:54 PM 50.0 °F 44.1 °F 80% 30.04 in - Calm Calm - N/A   Unknown
6:54 PM 48.9 °F 44.1 °F 83% 30.06 in - Calm Calm - 0.01 in   Unknown
7:54 PM 48.0 °F 45.0 °F 89% 30.09 in - Calm Calm - 0.03 in   Unknown
8:54 PM 46.9 °F 44.1 °F 90% 30.11 in - Calm Calm - 0.05 in   Unknown
9:54 PM 46.0 °F 44.1 °F 93% 30.13 in - Calm Calm - 0.03 in   Unknown
10:54 PM 46.0 °F 44.1 °F 93% 30.13 in - Calm Calm - N/A   Unknown
11:54 PM 43.0 °F 41.0 °F 93% 30.12 in - Calm Calm - N/A   Unknown